Location: Conover
(35.7170°N, 81.2250°W)
Time: 16:37:52
(UTC-04:00)

Daily predictions for brighter satellites

Satellite Brightness Start Highest point End
(mag) Time Altitude Azimuth Time Altitude Azimuth Time Altitude Azimuth
H-2A R/B 2.8 21:11:13 10° S 21:15:02 83° WSW 21:18:50 10° NNW
Hubble Space Telescope 2.4 21:13:17 10° SSW 21:16:10 18° SSE 21:19:04 10° ESE
Cosmos 2219 Rocket 4.1 21:13:30 10° NNE 21:16:39 15° NE 21:19:47 10° E
YAOGAN 11 4.2 21:13:58 10° SSE 21:18:13 63° ENE 21:22:34 10° N
OTV 4 0.8 21:16:04 10° SW 21:18:55 44° SSE 21:21:46 10° E
COSMOS 2428 3.7 21:16:09 10° N 21:21:13 32° ENE 21:26:16 10° SE
Cosmos 1726 4.3 21:20:38 10° NE 21:22:19 12° ENE 21:24:00 10° E
DELTA 2 R/B (1) 3.7 21:18:54 10° WNW 21:24:26 72° SSW 21:29:53 10° ESE
CZ-2D R/B 4.3 21:21:48 10° S 21:25:31 46° W 21:29:15 10° NNW
Cosmos 1500 Rocket 4.3 21:22:24 10° SSW 21:26:42 58° W 21:31:04 10° N
Cosmos 1680 Rocket 3.6 21:23:24 10° NNW 21:28:38 65° ENE 21:33:52 10° SSE
Cosmos 2058 3.6 21:25:36 10° SSE 21:29:17 33° E 21:32:59 10° NNE
Cosmos 1437 Rocket 2.9 21:26:08 10° NNW 21:29:57 74° W 21:33:50 10° S
Cosmos 2151 3.0 21:25:55 10° S 21:30:03 62° E 21:34:13 10° NNE
Cosmos 923 Rocket 4.1 21:29:18 10° NNW 21:34:31 83° WSW 21:39:42 10° SSE
NOSS 3-1 (A) 3.4 21:29:42 10° SSW 21:35:24 63° ESE 21:41:38 10° NE
Cosmos 1898 Rocket 3.9 21:32:12 10° S 21:37:02 42° ESE 21:41:55 10° NNE
Cosmos 405 3.1 21:34:09 10° N 21:37:47 83° W 21:41:22 10° S
SWAS 4.5 21:36:26 10° NNW 21:40:46 79° ENE 21:44:40 13° SSE
Delta 2 Rocket 2.9 21:38:01 10° W 21:41:54 85° S 21:44:58 13° E
Cosmos 1437 3.0 21:39:27 10° SSW 21:42:42 71° W 21:45:59 10° N
Nadezhda 2 Rocket 4.5 21:36:43 10° S 21:42:45 65° E 21:48:46 10° NNE
ALOS 3.7 21:39:18 10° SSW 21:43:34 36° W 21:47:54 10° NNW
Aureole 3 4.3 21:38:38 10° S 21:45:12 75° E 21:50:23 10° N
Cosmos 1939 Rocket 2.8 21:42:39 11° SSE 21:46:19 64° ENE 21:50:09 10° N
Cosmos 2219 3.5 21:41:30 10° SSW 21:47:14 73° WNW 21:52:59 10° NNE
Tiangong 1 2.9 21:45:11 10° W 21:48:02 31° NNW 21:50:52 10° NE
Nimbus 7 Rocket 4.3 21:45:17 10° NNE 21:51:08 72° ESE 21:56:59 10° S
Cosmos 2237 Rocket 3.9 21:48:49 10° N 21:52:55 20° ENE 21:56:27 12° E
Cosmos 2150 Rocket 4.1 21:47:45 10° S 21:53:07 64° ESE 21:58:32 10° NNE
OAO 2 Rocket 3.4 21:48:01 10° WSW 21:53:18 74° S 21:58:38 10° E
Cosmos 2082 4.5 21:52:09 11° SSE 21:56:55 31° ESE 22:01:52 10° NE
CZ-4 SHROUD 3.9 21:55:57 23° SE 21:57:22 36° ENE 22:00:17 10° N
ATLAS 2AS CENTAUR R/B 3.4 21:50:56 10° S 21:57:32 38° ESE 22:04:37 10° NE
Sich 1 3.4 21:54:31 14° SSE 21:58:03 44° E 22:02:14 10° NNE
Cosmos 2322 4.3 21:54:25 10° NNW 22:00:00 56° WSW 22:05:31 10° S
deb Chang Zheng 4 4.0 21:55:58 10° N 22:00:15 65° WNW 22:04:33 10° SSW
Cosmos 1626 4.2 22:02:07 13° E 22:02:07 13° E 22:03:52 10° ENE
Cosmos 2360 Rocket 2.9 21:56:37 10° NNW 22:02:05 51° WSW 22:07:31 10° S
Cosmos 1328 4.4 21:58:12 10° SSW 22:02:05 58° W 22:06:00 10° N
Cosmos 1151 Rocket 4.0 21:58:40 10° NNW 22:02:49 47° W 22:06:59 10° SSW
Cosmos 1271 Rocket 3.9 22:00:53 10° NNE 22:04:13 27° ENE 22:05:31 22° ESE
ERS-1 Rocket 3.6 22:00:23 10° S 22:05:17 54° W 22:10:14 10° NNW
Cosmos 1633 Rocket 3.2 22:02:35 16° SSE 22:05:51 52° E 22:10:06 10° NNE
YAOGAN 6 3.4 22:04:58 24° ESE 22:06:23 34° ENE 22:09:39 10° N
ERBS 2.4 22:03:48 10° SW 22:07:18 84° NW 22:10:49 10° NE
ATLAS 3B R/B 4.4 22:03:18 10° N 22:08:15 20° NE 22:13:00 10° E
Sakura Rocket 3.9 22:08:26 10° SW 22:11:59 24° S 22:12:17 23° SSE
Envisat 3.1 22:08:20 14° S 22:12:40 79° WSW 22:17:46 10° NNW
Cosmos 2242 Rocket 4.1 22:10:54 10° N 22:15:12 43° E 22:17:07 28° SE
Cosmos 1703 3.6 22:14:45 30° SE 22:16:10 43° E 22:19:53 10° NNE
CZ-4 R/B 4.4 22:12:25 10° NNE 22:16:57 38° E 22:18:51 27° SE
SL-14 R/B 3.2 22:14:22 14° S 22:17:42 87° W 22:21:44 10° N
USA 245 3.7 22:21:00 23° NE 22:21:00 23° NE 22:22:25 10° NNE
Cosmos 1805 Rocket 4.3 22:19:15 10° SSW 22:23:35 53° W 22:27:56 10° N
PSLV R/B 3.2 22:23:16 38° S 22:24:17 74° WSW 22:27:20 10° NNW
Meteor 1-27 4.2 22:19:18 10° N 22:24:59 87° W 22:28:49 21° S
Cosmos 220 Rocket 4.0 22:23:03 10° SSW 22:27:26 84° WNW 22:31:53 10° NNE
Cosmos 2227 Rocket 2.2 22:23:04 10° S 22:28:37 63° ESE 22:34:13 10° NNE
USA 32 4.1 22:24:58 10° N 22:30:09 58° E 22:32:30 31° SSE
Cosmos 1937 Rocket 3.5 22:25:46 10° SSW 22:31:00 81° WNW 22:36:14 10° NNE
MetOp-A 4.1 22:30:23 24° S 22:33:42 82° WSW 22:39:05 10° NNW
Cosmos 1300 3.3 22:30:01 10° NNW 22:33:46 53° W 22:35:46 25° SSW
Cosmos 990 Rocket 3.8 22:32:41 15° S 22:36:53 80° ESE 22:42:03 10° NNE
H-2A R/B 3.9 22:36:22 10° SSW 22:40:13 29° W 22:44:09 10° NW
SPOT 5 3.5 22:40:03 21° SSW 22:42:53 48° W 22:47:34 10° NNW
Cosmos 292 Rocket 3.7 22:39:30 10° NNW 22:44:17 83° WSW 22:46:00 40° S
ARGOS 3.1 22:44:45 36° SSE 22:47:00 76° ENE 22:52:24 10° N
H-2A R/B 3.8 22:43:54 10° SW 22:48:12 48° SSE 23:12:01 10° E
SL-16 R/B 3.6 22:44:10 10° N 22:48:47 25° ENE 22:50:40 21° E
CZ-4B R/B 3.8 22:45:09 10° N 22:50:22 68° WNW 22:54:30 16° SSW
Cosmos 2333 Rocket 2.2 22:47:58 10° NNW 22:53:44 73° ENE 22:55:43 42° SE
Cosmos 2297 Rocket 2.1 22:51:53 27° S 22:55:03 74° ESE 23:00:43 10° NNE
OTV 4 1.3 22:52:18 10° W 22:54:46 49° NW 22:54:46 49° NW
Cosmos 1455 2.4 22:52:11 10° N 22:55:49 53° ENE 22:55:49 53° ENE
Hubble Space Telescope 2.5 22:53:18 10° WSW 22:54:58 20° SW 22:54:58 20° SW
Cosmos 1346 3.7 22:57:45 54° NNW 22:57:45 54° NNW 23:00:15 10° N
Cosmos 1726 3.6 22:54:23 10° NNW 22:57:47 32° W 22:59:13 24° SW
Landsat 7 3.9 22:57:59 49° ESE 22:58:53 58° ENE 23:03:33 10° N
NOSS 2-3 (C) 4.5 23:00:19 39° E 23:00:19 39° E 23:04:37 10° NE
Cosmos 1470 Rocket 3.6 22:59:12 44° SSW 23:00:29 75° W 23:04:49 10° N
Cosmos 2219 Rocket 2.2 22:55:34 10° NNW 23:01:09 72° WSW 23:03:06 41° S
Cosmos 1933 Rocket 3.6 23:00:00 44° SSW 23:01:22 78° W 23:05:51 10° N
Cosmos 44 Rocket 4.0 23:04:45 39° E 23:04:45 39° E 23:08:55 10° NE
Meteor 2-10 4.3 22:59:31 10° NNW 23:05:15 74° W 23:07:31 38° S
COSMOS 2428 4.1 23:00:27 10° NW 23:05:21 31° WSW 23:08:24 19° SSW
SL-08 RB Rocket 3.6 23:05:02 57° S 23:05:54 80° WSW 23:10:24 10° NNW
Meteor 1-4 Rocket 3.8 23:02:53 10° NNW 23:06:17 35° W 23:06:57 32° WSW
NOSS 0 Rocket 3.9 23:01:16 10° NNW 23:07:25 76° WSW 23:09:35 43° S
Lacrosse 4 Rocket 2.8 23:04:39 10° N 23:08:34 29° ENE 23:08:55 29° ENE
Nadezhda 1 Rocket 3.9 23:03:55 10° N 23:10:04 89° W 23:12:17 43° S
Terra 1.9 23:14:22 57° E 23:14:44 59° ENE 23:19:25 10° N
H-2A R/B 2.1 23:15:26 56° SE 23:16:28 72° ENE 23:21:54 10° N
COSMOS 2455 3.2 23:14:34 10° NNW 23:20:27 52° ENE 23:21:50 44° E
NOSS 2-3 (D) 3.9 23:21:10 61° E 23:21:10 61° E 23:26:08 10° NE
Cosmos 1125 Rocket 3.4 23:23:43 56° SSW 23:24:53 89° WNW 23:30:14 10° NNE
Tiangong 1 3.4 23:22:42 10° NW 23:25:09 21° N 23:25:23 21° N
Cosmos 1980 3.9 23:20:03 10° NNW 23:25:37 63° WSW 23:26:49 50° SSW
Cosmos 1048 Rocket 4.4 23:22:46 10° N 23:27:59 49° ENE 23:28:25 48° E
Cosmos 1709 Rocket 3.8 23:27:43 56° SSE 23:29:05 79° E 23:35:12 10° N
Spot 4 3.9 23:29:25 65° E 23:29:31 65° ENE 23:34:20 10° N
Cosmos 2221 Rocket 4.2 23:27:42 10° N 23:31:33 46° NE 23:31:33 46° NE
Cosmos 372 Rocket 4.0 23:36:14 64° E 23:36:14 64° E 23:41:07 10° NNE
Cosmos 1626 3.7 23:36:48 29° W 23:37:06 29° WNW 23:40:26 10° NNW
Cosmos 2237 Rocket 2.6 23:31:46 10° NNW 23:37:19 54° WSW 23:38:17 48° SW
OAO 2 Rocket 3.3 23:32:50 10° W 23:38:02 80° SSW 23:38:02 80° SSW
Cosmos 1900 4.2 23:33:45 10° NNW 23:38:38 78° NE 23:38:38 78° NE
Cosmos 1869 4.1 23:35:41 10° NNW 23:39:13 47° WNW 23:39:13 47° WNW
CARTOSAT-1 3.9 23:42:07 60° WNW 23:42:07 60° WNW 23:46:04 10° NNW
TSX-5 4.4 23:43:12 78° SE 23:43:17 78° ESE 23:49:44 10° NNE
Meteor 1-26 Rocket 4.5 23:40:47 10° N 23:46:18 53° E 23:46:26 53° E
ATLAS 2AS CENTAUR R/B 3.9 23:41:14 10° WSW 23:48:21 46° NW 23:56:02 10° NNE
IGS 5A 4.2 23:50:56 49° WNW 23:50:56 49° WNW 23:54:22 10° NNW
Cosmos 44 4.5 23:55:07 36° ENE 23:55:07 36° ENE 23:58:36 10° NE
